Home > Time Zones > World Clock > Weather > Egypt > Cairo > Past weeks

Flag for Egypt Weather past 2 weeks in Cairo, Egypt

Now
82 °F

Scattered clouds.


Feels Like: 82 °F
Forecast: 69 / 93 °F
Wind: 2 mph from North

Location: Cairo Airport

Current Time: Jun 30, 2015 at 11:12:39 AM

Latest Report: Jun 30, 2015 at 10:30 AM


Visibility: N/A

Pressure: 29.98 "Hg

Humidity: 45%

Dew point: 59 °F

Location of CairoLocation

Historic Weather in Cairo — Graph

°F

Cairo temperature yesterday

Maximum temperature yesterday: 88 °F (at 11:30 AM)
Minimum temperature yesterday: 72 °F (at 5:00 AM)
Average temperature yesterday: 81 °F

Past Weeks' High & Low Weather Summary

 TemperatureHumidityPressure
High102 °F (Jun 18, 5:00 PM)88% (Jun 26, 6:00 AM)29.98 "Hg (Jun 26, 6:00 AM)
Low70 °F (Jun 24, 5:30 AM)11% (Jun 27, 2:30 PM)29.59 "Hg (Jun 27, 2:00 PM)
Average82 °F49%29.84 "Hg
* Reported Jun 15 10:00 AM — Jun 30 10:00 AM, Cairo, Weather by CustomWeather, © 2015

Note: Actual official high and low records may vary slightly from our data, if they occured in-between our weather recording intervals... More about our weather records

Advertising

Cairo weather history for previous 24 hours

 ConditionsComfort  
Time TempWeatherWind HumidityBarometerVisibility
10:00 AM
Tue, Jun 30
81 °FScattered clouds.2 mph45%29.98 "HgN/A
9:30 AM79 °FPartly sunny.5 mph54%29.98 "HgN/A
9:00 AM79 °FPartly sunny.No wind58%29.98 "HgN/A
8:30 AM77 °FScattered clouds.3 mph61%29.98 "HgN/A
8:00 AM75 °FScattered clouds.6 mph65%29.98 "HgN/A
7:30 AM75 °FSunny.No wind69%29.98 "Hg10 mi
7:00 AM73 °FSunny.5 mph74%29.98 "Hg10 mi
6:30 AM73 °FSunny.5 mph74%29.95 "Hg10 mi
6:00 AM73 °FSunny.5 mph74%29.95 "Hg10 mi
5:00 AM73 °FSunny.6 mph69%29.95 "Hg10 mi
4:30 AM72 °FClear.3 mph73%29.95 "Hg10 mi
4:00 AM72 °FClear.3 mph73%29.95 "Hg10 mi
3:30 AM72 °FClear.3 mph73%29.95 "Hg10 mi
3:00 AM73 °FClear.5 mph69%29.95 "Hg10 mi
2:30 AM73 °FClear.6 mph69%29.95 "Hg10 mi
2:00 AM75 °FClear.6 mph65%29.95 "Hg10 mi
1:30 AM73 °FClear.6 mph69%29.95 "Hg10 mi
1:00 AM73 °FClear.5 mph69%29.95 "Hg10 mi
12:30 AM73 °FClear.6 mph69%29.95 "Hg10 mi
12:00 AM75 °FClear.10 mph65%29.95 "Hg10 mi
11:30 PM
Mon, Jun 29
75 °FClear.10 mph65%29.95 "Hg10 mi
11:00 PM77 °FClear.10 mph61%29.95 "Hg10 mi
10:30 PM75 °FClear.12 mph65%29.98 "Hg10 mi
10:00 PM77 °FClear.12 mph61%29.98 "Hg10 mi
9:30 PM77 °FClear.12 mph61%29.95 "Hg10 mi
9:00 PM79 °FClear.12 mph61%29.95 "Hg10 mi
8:30 PM81 °FClear.17 mph58%29.95 "Hg10 mi
8:00 PM81 °FClear.17 mph54%29.95 "Hg10 mi
7:30 PM81 °FPassing clouds.10 mph58%29.92 "HgN/A
7:00 PM84 °FPassing clouds.8 mph35%29.92 "HgN/A
6:30 PM86 °FPleasantly warm.8 mph33%29.89 "HgN/A
6:00 PM86 °FPleasantly warm.6 mph33%29.89 "HgN/A
5:30 PM86 °FPleasantly warm.8 mph35%29.89 "HgN/A
5:00 PM88 °FScattered clouds.9 mph33%29.89 "HgN/A
4:30 PM88 °FPartly sunny.10 mph31%29.89 "HgN/A
4:00 PM88 °FPartly sunny.5 mph33%29.89 "HgN/A
3:30 PM88 °FPartly sunny.8 mph33%29.89 "HgN/A
3:00 PM88 °FPartly sunny.9 mph33%29.89 "HgN/A
2:30 PM88 °FPartly sunny.9 mph31%29.89 "HgN/A
2:00 PM88 °FPartly sunny.6 mph31%29.89 "HgN/A
1:30 PM88 °FPartly sunny.3 mph31%29.89 "HgN/A
1:00 PM88 °FScattered clouds.7 mph33%29.92 "HgN/A
12:30 PM86 °FScattered clouds.8 mph33%29.92 "HgN/A
12:00 PM86 °FScattered clouds.2 mph35%29.92 "HgN/A
11:30 AM88 °FScattered clouds.6 mph33%29.92 "HgN/A
11:00 AM86 °FScattered clouds.6 mph35%29.92 "HgN/A
Weather by CustomWeather, © 2015

See weather overviewHow to use our weather pages